User: anonymous   Login
Location: Monfort
(47.1967°N, 0.2115°W)
Time: 16:28:14
(UTC+00:00)
Language:

SL-4 R/B - Orbit

View from above orbital plane
View from above orbital plane
View from above satellite
View from above satellite

Ground track
Ground track

The orbit data is extracted from the following two-line orbital elements,

1 39679U 14021B   21018.83550027 -.00000025  00000-0  17046-4 0  9994
2 39679  51.6150 187.7061 0170665 332.4563  26.7440 15.06723539371493
Epoch (UTC): 18 January 2021 20:03:07
Eccentricity: 0.0170665
inclination: 51.6150°
perigee height: 428 km
apogee height: 664 km
right ascension of ascending node: 187.7061°
argument of perigee: 332.4563°
revolutions per day: 15.06723539
mean anomaly at epoch: 26.7440°
orbit number at epoch: 37149

The dashed part of the orbit path shows where the satellite is in the earth's shadow,  

DLR